User: anonymous   Login
Location: Unspecified
(0.0000°N, 0.0000°E)
Time: 11:13:09
(UTC+00:00)
Language:

SCISAT 1 - Orbit

View from above orbital plane
View from above orbital plane
View from above satellite
View from above satellite

Ground track
Ground track

The orbit data is extracted from the following two-line orbital elements,

1 27858U 03036A   18019.89332134 +.00000056 +00000-0 +12876-4 0  9993
2 27858 073.9338 120.6674 0007819 182.0583 178.0561 14.77180497777774
Epoch (UTC): 19 January 2018 21:26:22
Eccentricity: 0.0007819
inclination: 73.9338°
perigee height: 633 km
apogee height: 644 km
right ascension of ascending node: 120.6674°
argument of perigee: 182.0583°
revolutions per day: 14.77180497
mean anomaly at epoch: 178.0561°
orbit number at epoch: 77777

The dashed part of the orbit path shows where the satellite is in the earth's shadow,  

DLR